Regional Weather Roundup
Issued by NWS

Home | Current Version | Previous Version | Graphics & Text | Print | Product List | Glossary On
Versions: 1 2 3 4 5 6 7 8 9 10 11 12 13 14 15 16 17 18 19 20 21 22 23 24 25 26 27 28 29 30 31 32 33 34 35 36 37 38 39 40 41 42 43 44 45 46 47 48 49 50
000
ASUS43 KLSX 231659
RWRMO

WEATHER SUMMARY FOR MISSOURI
NATIONAL WEATHER SERVICE SPRINGFIELD MO
1200 PM CDT THU OCT 23 2014

NOTE: "FAIR" INDICATES FEW OR NO CLOUDS BELOW 12,000 FEET WITH NO
       SIGNIFICANT WEATHER AND/OR OBSTRUCTIONS TO VISIBILITY.
       CURRENT SKY AND/OR WEATHER CONDITIONS ARE NOT AVAILABLE FOR
       CHILLICOTHE AND FARMINGTON.

MOZ001>031-035>038-043-044-053-054-231800-
...NORTHERN AND WESTERN MISSOURI...

CITY           SKY/WX    TMP DP  RH WIND       PRES   REMARKS
KANSAS CTY INT CLOUDY    63  60  90 SW8       30.11R
KANSAS C DTWN  CLOUDY    65  60  84 SW8       30.11R
LEE`S SUMMIT   CLOUDY    62  59  90 SW7       30.12S
ST JOSEPH      CLOUDY    64  61  90 S7        30.09S
KIRKSVILLE     PTSUNNY   62  53  72 SW9       30.12F

$$
MOZ066>068-077>081-088>096-101>105-231800-
...SOUTHWEST MISSOURI...

CITY           SKY/WX    TMP DP  RH WIND       PRES   REMARKS
SPRINGFIELD    CLOUDY    56  49  77 S9        30.17F
JOPLIN         LGT RAIN  57  56  96 S10       30.18S FOG

$$
MOZ032>034-039>042-045>050-055>058-069>072-231800-
...CENTRAL MISSOURI...

CITY           SKY/WX    TMP DP  RH WIND       PRES   REMARKS
COLUMBIA       CLOUDY    57  47  69 S10       30.16R
JEFFERSON CITY CLOUDY    59  45  59 S7        30.17S
ROLLA          CLOUDY    57  44  62 S13       30.17S
SEDALIA        CLOUDY    60  50  69 SW9       30.15F
OSAGE BEACH    CLOUDY    57  46  67 SW7       30.17S

$$
MOZ051-052-059>065-231800-
...EAST CENTRAL MISSOURI...

CITY           SKY/WX    TMP DP  RH WIND       PRES   REMARKS
ST LOUIS INTL  CLOUDY    60  43  53 S5        30.20F
SPIRIT OF STL  CLOUDY    59  44  57 CALM      30.19F
ST CHARLES     CLOUDY    59  44  57 S8        30.19F

$$
MOZ072>076-082>087-097>100-106>115-231800-
...SOUTH CENTRAL AND SOUTHEAST MISSOURI...

CITY           SKY/WX    TMP DP  RH WIND       PRES   REMARKS
CAPE GIRARDEAU CLOUDY    57  44  62 CALM      30.24S
FARMINGTON     PTSUNNY   57  43  58 S7        30.23F
POPLAR BLUFF   CLOUDY    54  45  71 CALM      30.23S
WEST PLAINS    CLOUDY    54  43  66 S5        30.22F

$$



USA.gov is the U.S. government's official web portal to all federal, state and local government web resources and services.